Location: Augirein
(42.9320°N, 0.9181°E)
Time: 17:52:10
(UTC+00:00)

Cosmos 2151 - Pass Details

Date: 20 June 2021
Orbit: 582 x 600 km, 82.5° (Epoch: 30 July)

Event Time Altitude Azimuth Distance (km) Brightness Sun altitude
Exits shadow 01:44:54 35° 158° (SSE) 949 3.6 -19.2°
Maximum altitude 01:46:26 60° 95° (E) 676 3.3 -19.1°
Drops below altitude 10° 01:50:35 10° 16° (NNE) 1,912 6.8 -18.7°
Sets 01:52:49 0° 12° (NNE) 2,815 7.9 -18.6°
